| time (UTC) | temp F | wind direction | speed MPH | gust MPH | rain 1hr in | rain 24hr in | rain mn in | humidity % | barometer mb |
| 20260904181506 | 65 | 277 | 6.0 | 12.0 | 0.00 | 0.19 | 0.19 | 74 | 1013.5 |
| 20260904181006 | 66 | 275 | 6.0 | 14.0 | 0.00 | 0.19 | 0.19 | 74 | 1013.5 |
| 20260904180006 | 66 | 275 | 7.0 | 14.0 | 0.00 | 0.19 | 0.19 | 73 | 1013.5 |
| 20260904175505 | 66 | 273 | 7.0 | 15.0 | 0.00 | 0.19 | 0.19 | 73 | 1013.4 |
| 20260904175005 | 66 | 270 | 7.0 | 15.0 | 0.00 | 0.19 | 0.19 | 73 | 1013.2 |
| 20260904174505 | 66 | 270 | 7.0 | 16.0 | 0.00 | 0.19 | 0.19 | 73 | 1013.2 |
| 20260904174005 | 66 | 273 | 7.0 | 16.0 | 0.00 | 0.19 | 0.19 | 73 | 1013.2 |
| 20260904173505 | 66 | 271 | 7.0 | 14.0 | 0.00 | 0.19 | 0.19 | 73 | 1013.2 |
| 20260904173005 | 66 | 270 | 7.0 | 17.0 | 0.00 | 0.19 | 0.19 | 72 | 1013.0 |
| 20260904171506 | 66 | 274 | 7.0 | 19.0 | 0.00 | 0.19 | 0.19 | 71 | 1013.0 |
| 20260904171006 | 66 | 276 | 8.0 | 19.0 | 0.00 | 0.19 | 0.19 | 71 | 1012.8 |
| 20260904170006 | 66 | 276 | 8.0 | 17.0 | 0.00 | 0.19 | 0.19 | 72 | 1012.8 |
| 20260904165505 | 67 | 278 | 9.0 | 17.0 | 0.00 | 0.19 | 0.19 | 73 | 1012.7 |
| 20260904164505 | 67 | 273 | 8.0 | 18.0 | 0.00 | 0.19 | 0.19 | 74 | 1012.7 |
| 20260904164005 | 67 | 275 | 10.0 | 18.0 | 0.00 | 0.19 | 0.19 | 73 | 1012.4 |
| 20260904163505 | 67 | 278 | 9.0 | 17.0 | 0.00 | 0.19 | 0.19 | 73 | 1012.4 |
| 20260904162505 | 68 | 268 | 11.0 | 20.0 | 0.00 | 0.19 | 0.19 | 73 | 1012.3 |
| 20260904162005 | 68 | 269 | 12.0 | 20.0 | 0.00 | 0.19 | 0.19 | 74 | 1012.3 |
| 20260904161505 | 68 | 272 | 10.0 | 20.0 | 0.00 | 0.19 | 0.19 | 74 | 1012.5 |
| 20260904161005 | 68 | 273 | 9.0 | 18.0 | 0.00 | 0.19 | 0.19 | 75 | 1012.2 |
| 20260904160505 | 68 | 270 | 10.0 | 20.0 | 0.00 | 0.19 | 0.19 | 75 | 1012.1 |
| 20260904160005 | 68 | 269 | 11.0 | 20.0 | 0.00 | 0.19 | 0.19 | 74 | 1012.3 |
| 20260904155505 | 68 | 266 | 12.0 | 22.0 | 0.00 | 0.19 | 0.19 | 74 | 1012.2 |
| 20260904155005 | 68 | 268 | 11.0 | 22.0 | 0.00 | 0.19 | 0.19 | 74 | 1012.2 |
| 20260904154005 | 68 | 266 | 12.0 | 23.0 | 0.00 | 0.19 | 0.19 | 74 | 1012.2 |
| 20260904153505 | 68 | 270 | 9.0 | 23.0 | 0.00 | 0.19 | 0.19 | 75 | 1012.2 |
| 20260904153005 | 68 | 271 | 8.0 | 15.0 | 0.00 | 0.19 | 0.19 | 78 | 1012.1 |
| 20260904152505 | 68 | 267 | 8.0 | 17.0 | 0.00 | 0.19 | 0.19 | 78 | 1012.1 |
| 20260904152005 | 68 | 266 | 8.0 | 17.0 | 0.00 | 0.19 | 0.19 | 78 | 1012.0 |
| 20260904151505 | 68 | 266 | 9.0 | 22.0 | 0.00 | 0.19 | 0.19 | 79 | 1012.1 |
| 20260904151005 | 68 | 265 | 11.0 | 24.0 | 0.00 | 0.19 | 0.19 | 78 | 1012.0 |
| 20260904150505 | 68 | 268 | 12.0 | 24.0 | 0.00 | 0.19 | 0.19 | 79 | 1012.0 |
| 20260904145507 | 68 | 271 | 10.0 | 21.0 | 0.00 | 0.19 | 0.19 | 81 | 1012.0 |
| 20260904145005 | 68 | 269 | 10.0 | 21.0 | 0.00 | 0.19 | 0.19 | 81 | 1011.9 |
| 20260904144005 | 68 | 265 | 11.0 | 24.0 | 0.00 | 0.19 | 0.19 | 82 | 1011.7 |
| 20260904143505 | 68 | 268 | 11.0 | 24.0 | 0.00 | 0.19 | 0.19 | 82 | 1011.6 |
| 20260904143006 | 68 | 273 | 11.0 | 21.0 | 0.00 | 0.19 | 0.19 | 84 | 1011.7 |
| 20260904142506 | 68 | 273 | 10.0 | 20.0 | 0.00 | 0.19 | 0.19 | 84 | 1011.7 |
| 20260904142005 | 67 | 268 | 10.0 | 18.0 | 0.00 | 0.19 | 0.19 | 84 | 1011.4 |
| 20260904141506 | 67 | 269 | 9.0 | 18.0 | 0.00 | 0.19 | 0.19 | 85 | 1011.4 |
| 20260904140506 | 67 | 274 | 9.0 | 19.0 | 0.00 | 0.19 | 0.19 | 85 | 1011.5 |
| 20260904140005 | 67 | 273 | 9.0 | 19.0 | 0.00 | 0.19 | 0.19 | 88 | 1011.5 |
| 20260904135505 | 67 | 269 | 8.0 | 19.0 | 0.00 | 0.19 | 0.19 | 87 | 1011.4 |
| 20260904135005 | 67 | 265 | 6.0 | 16.0 | 0.00 | 0.19 | 0.19 | 89 | 1011.4 |
| 20260904134505 | 67 | 262 | 7.0 | 14.0 | 0.00 | 0.19 | 0.19 | 90 | 1011.2 |
| 20260904133505 | 66 | 264 | 7.0 | 16.0 | 0.00 | 0.19 | 0.19 | 91 | 1011.0 |
| 20260904133005 | 66 | 264 | 9.0 | 17.0 | 0.00 | 0.19 | 0.19 | 91 | 1010.9 |
| 20260904132505 | 66 | 263 | 9.0 | 20.0 | 0.01 | 0.19 | 0.19 | 91 | 1010.7 |
| 20260904132005 | 66 | 265 | 8.0 | 20.0 | 0.01 | 0.19 | 0.19 | 91 | 1010.9 |
| 20260904131506 | 66 | 270 | 7.0 | 15.0 | 0.01 | 0.19 | 0.19 | 92 | 1010.8 |
| 20260904131006 | 66 | 264 | 7.0 | 15.0 | 0.01 | 0.19 | 0.19 | 93 | 1010.9 |
| 20260904130505 | 66 | 264 | 7.0 | 15.0 | 0.01 | 0.19 | 0.19 | 93 | 1010.9 |
| 20260904130006 | 66 | 266 | 6.0 | 12.0 | 0.01 | 0.19 | 0.19 | 93 | 1011.0 |
| 20260904125506 | 66 | 264 | 6.0 | 13.0 | 0.01 | 0.19 | 0.19 | 93 | 1011.0 |
| 20260904125005 | 66 | 266 | 7.0 | 17.0 | 0.01 | 0.19 | 0.19 | 94 | 1010.8 |
| 20260904124505 | 66 | 268 | 8.0 | 17.0 | 0.02 | 0.19 | 0.19 | 94 | 1010.7 |
| 20260904124005 | 66 | 270 | 8.0 | 17.0 | 0.02 | 0.19 | 0.19 | 94 | 1010.6 |
| 20260904122505 | 66 | 258 | 6.0 | 14.0 | 0.05 | 0.18 | 0.18 | 94 | 1010.6 |
| 20260904122006 | 66 | 260 | 7.0 | 14.0 | 0.06 | 0.18 | 0.18 | 94 | 1010.5 |
| 20260904121505 | 66 | 260 | 7.0 | 15.0 | 0.08 | 0.18 | 0.18 | 94 | 1010.6 |
| 20260904121005 | 65 | 265 | 8.0 | 17.0 | 0.15 | 0.18 | 0.18 | 94 | 1010.5 |
| 20260904120507 | 65 | 269 | 9.0 | 19.0 | 0.17 | 0.18 | 0.18 | 94 | 1010.5 |
| 20260904120006 | 65 | 266 | 11.0 | 23.0 | 0.17 | 0.18 | 0.18 | 94 | 1010.3 |
| 20260904115506 | 65 | 269 | 11.0 | 23.0 | 0.18 | 0.18 | 0.18 | 94 | 1010.3 |
| 20260904114506 | 65 | 270 | 7.0 | 16.0 | 0.17 | 0.17 | 0.17 | 94 | 1010.2 |
| 20260904114005 | 65 | 275 | 7.0 | 16.0 | 0.17 | 0.17 | 0.17 | 93 | 1010.2 |
| 20260904113505 | 65 | 275 | 8.0 | 17.0 | 0.15 | 0.15 | 0.15 | 93 | 1010.2 |
| 20260904112505 | 66 | 270 | 6.0 | 13.0 | 0.13 | 0.13 | 0.13 | 93 | 1010.2 |
| 20260904112005 | 66 | 269 | 6.0 | 14.0 | 0.13 | 0.13 | 0.13 | 91 | 1010.2 |
| 20260904111506 | 66 | 268 | 8.0 | 17.0 | 0.10 | 0.10 | 0.10 | 89 | 1010.2 |
| 20260904111006 | 68 | 257 | 13.0 | 27.0 | 0.03 | 0.03 | 0.03 | 86 | 1010.1 |
| 20260904110505 | 70 | 249 | 14.0 | 27.0 | 0.01 | 0.01 | 0.01 | 88 | 1010.1 |
| 20260904110005 | 70 | 250 | 14.0 | 33.0 | 0.00 | 0.00 | 0.00 | 87 | 1009.4 |
| 20260904105505 | 71 | 247 | 15.0 | 33.0 | 0.00 | 0.00 | 0.00 | 84 | 1009.4 |
| 20260904105005 | 72 | 244 | 15.0 | 29.0 | 0.00 | 0.00 | 0.00 | 81 | 1009.4 |
| 20260904104506 | 72 | 243 | 14.0 | 29.0 | 0.00 | 0.00 | 0.00 | 81 | 1009.4 |
| 20260904104005 | 72 | 244 | 15.0 | 29.0 | 0.00 | 0.00 | 0.00 | 81 | 1009.5 |
| 20260904103505 | 72 | 246 | 15.0 | 27.0 | 0.00 | 0.00 | 0.00 | 81 | 1009.5 |
| 20260904103006 | 72 | 245 | 16.0 | 31.0 | 0.00 | 0.00 | 0.00 | 81 | 1009.6 |
| 20260904102505 | 72 | 244 | 15.0 | 31.0 | 0.00 | 0.00 | 0.00 | 81 | 1009.5 |
| 20260904102005 | 72 | 243 | 14.0 | 29.0 | 0.00 | 0.00 | 0.00 | 81 | 1009.6 |
| 20260904101505 | 72 | 245 | 14.0 | 28.0 | 0.00 | 0.00 | 0.00 | 81 | 1009.6 |
| 20260904100005 | 72 | 245 | 16.0 | 30.0 | 0.00 | 0.00 | 0.00 | 82 | 1009.6 |
| 20260904095505 | 72 | 243 | 16.0 | 30.0 | 0.00 | 0.00 | 0.00 | 83 | 1009.6 |
| 20260904095005 | 72 | 246 | 15.0 | 28.0 | 0.00 | 0.00 | 0.00 | 82 | 1009.6 |
| 20260904094505 | 72 | 247 | 15.0 | 28.0 | 0.00 | 0.00 | 0.00 | 82 | 1009.7 |
| 20260904094005 | 72 | 242 | 15.0 | 31.0 | 0.00 | 0.00 | 0.00 | 82 | 1009.6 |
| 20260904093505 | 72 | 240 | 16.0 | 31.0 | 0.00 | 0.00 | 0.00 | 82 | 1009.8 |
| 20260904093005 | 72 | 241 | 16.0 | 30.0 | 0.00 | 0.00 | 0.00 | 82 | 1009.6 |
| 20260904092505 | 72 | 243 | 13.0 | 28.0 | 0.00 | 0.00 | 0.00 | 82 | 1009.6 |
| 20260904092005 | 72 | 243 | 14.0 | 31.0 | 0.00 | 0.00 | 0.00 | 82 | 1009.7 |
| 20260904091505 | 72 | 244 | 16.0 | 36.0 | 0.00 | 0.00 | 0.00 | 82 | 1009.7 |
| 20260904091006 | 72 | 239 | 14.0 | 36.0 | 0.00 | 0.00 | 0.00 | 82 | 1009.7 |
| 20260904090505 | 72 | 238 | 12.0 | 27.0 | 0.00 | 0.00 | 0.00 | 83 | 1009.7 |
| 20260904090005 | 72 | 247 | 12.0 | 26.0 | 0.00 | 0.00 | 0.00 | 84 | 1009.7 |
| 20260904085506 | 72 | 251 | 12.0 | 26.0 | 0.00 | 0.00 | 0.00 | 83 | 1009.7 |
| 20260904085005 | 72 | 244 | 13.0 | 26.0 | 0.00 | 0.00 | 0.00 | 84 | 1009.6 |
| 20260904084505 | 71 | 235 | 14.0 | 28.0 | 0.00 | 0.00 | 0.00 | 84 | 1009.5 |
| 20260904084005 | 71 | 241 | 12.0 | 28.0 | 0.00 | 0.00 | 0.00 | 84 | 1009.6 |
| 20260904083505 | 71 | 243 | 12.0 | 24.0 | 0.00 | 0.00 | 0.00 | 84 | 1009.6 |
| 20260904083005 | 71 | 239 | 13.0 | 28.0 | 0.00 | 0.00 | 0.00 | 83 | 1009.6 |
| 20260904082005 | 71 | 241 | 11.0 | 24.0 | 0.00 | 0.00 | 0.00 | 84 | 1009.6 |
| 20260904081006 | 71 | 238 | 10.0 | 21.0 | 0.00 | 0.00 | 0.00 | 85 | 1009.6 |
| 20260904080505 | 71 | 234 | 10.0 | 23.0 | 0.00 | 0.00 | 0.00 | 85 | 1009.5 |
| 20260904080005 | 70 | 238 | 11.0 | 23.0 | 0.00 | 0.00 | 0.00 | 85 | 1009.6 |
| 20260904075505 | 70 | 237 | 11.0 | 25.0 | 0.00 | 0.00 | 0.00 | 86 | 1009.6 |
| 20260904075005 | 71 | 231 | 11.0 | 25.0 | 0.00 | 0.00 | 0.00 | 85 | 1009.7 |
| 20260904074505 | 71 | 238 | 11.0 | 24.0 | 0.00 | 0.00 | 0.00 | 85 | 1009.6 |
| 20260904074005 | 71 | 236 | 12.0 | 23.0 | 0.00 | 0.00 | 0.00 | 85 | 1009.8 |
| 20260904073505 | 71 | 229 | 11.0 | 23.0 | 0.00 | 0.00 | 0.00 | 85 | 1009.8 |
| 20260904073005 | 71 | 233 | 11.0 | 26.0 | 0.00 | 0.00 | 0.00 | 85 | 1009.8 |
| 20260904072505 | 71 | 234 | 11.0 | 26.0 | 0.00 | 0.00 | 0.00 | 85 | 1009.7 |
| 20260904072005 | 71 | 225 | 10.0 | 22.0 | 0.00 | 0.01 | 0.00 | 84 | 1009.7 |
| 20260904071505 | 71 | 216 | 10.0 | 21.0 | 0.00 | 0.01 | 0.00 | 85 | 1009.9 |
| 20260904071005 | 71 | 215 | 11.0 | 26.0 | 0.00 | 0.01 | 0.00 | 85 | 1009.9 |
| 20260904070005 | 71 | 216 | 12.0 | 31.0 | 0.00 | 0.01 | 0.00 | 85 | 1009.7 |
| 20260904065005 | 70 | 218 | 10.0 | 24.0 | 0.00 | 0.02 | 0.00 | 85 | 1009.8 |
| 20260904064505 | 70 | 217 | 10.0 | 22.0 | 0.00 | 0.02 | 0.00 | 85 | 1009.8 |
| 20260904064005 | 70 | 230 | 10.0 | 22.0 | 0.00 | 0.02 | 0.00 | 85 | 1010.0 |
| 20260904063505 | 70 | 232 | 10.0 | 22.0 | 0.00 | 0.03 | 0.00 | 85 | 1009.9 |
| 20260904063005 | 70 | 221 | 8.0 | 20.0 | 0.00 | 0.04 | 0.00 | 85 | 1010.0 |
| 20260904062005 | 70 | 222 | 9.0 | 22.0 | 0.00 | 0.05 | 0.00 | 85 | 1010.2 |
| 20260904061506 | 70 | 218 | 10.0 | 22.0 | 0.00 | 0.05 | 0.00 | 85 | 1010.1 |
| 20260904061006 | 70 | 218 | 10.0 | 23.0 | 0.00 | 0.05 | 0.00 | 85 | 1010.3 |
| 20260904060506 | 70 | 220 | 9.0 | 23.0 | 0.00 | 0.05 | 0.00 | 85 | 1010.2 |
| 20260904060005 | 70 | 219 | 9.0 | 19.0 | 0.00 | 0.05 | 0.00 | 85 | 1010.3 |
| 20260904055505 | 70 | 218 | 9.0 | 19.0 | 0.00 | 0.06 | 0.00 | 85 | 1010.2 |
| 20260904055005 | 70 | 219 | 8.0 | 17.0 | 0.00 | 0.06 | 0.00 | 85 | 1010.3 |
| 20260904054505 | 70 | 215 | 8.0 | 19.0 | 0.00 | 0.06 | 0.00 | 85 | 1010.5 |
| 20260904054005 | 69 | 209 | 8.0 | 19.0 | 0.00 | 0.06 | 0.00 | 86 | 1010.5 |
| 20260904053505 | 69 | 214 | 8.0 | 20.0 | 0.00 | 0.06 | 0.00 | 86 | 1010.6 |
| 20260904052505 | 69 | 215 | 9.0 | 21.0 | 0.00 | 0.06 | 0.00 | 86 | 1010.6 |
| 20260904051505 | 69 | 212 | 10.0 | 20.0 | 0.00 | 0.06 | 0.00 | 86 | 1010.7 |
| 20260904051006 | 69 | 212 | 9.0 | 18.0 | 0.00 | 0.06 | 0.00 | 86 | 1010.8 |
| 20260904050505 | 69 | 215 | 9.0 | 18.0 | 0.00 | 0.06 | 0.00 | 86 | 1010.9 |
| 20260904050005 | 69 | 221 | 9.0 | 20.0 | 0.00 | 0.06 | 0.00 | 86 | 1011.0 |
| 20260904045505 | 69 | 223 | 9.0 | 20.0 | 0.00 | 0.06 | 0.00 | 86 | 1011.2 |
| 20260904045005 | 69 | 230 | 8.0 | 20.0 | 0.00 | 0.06 | 0.00 | 86 | 1011.3 |
| 20260904044505 | 69 | 233 | 8.0 | 20.0 | 0.00 | 0.06 | 0.00 | 86 | 1011.3 |
| 20260904044005 | 69 | 228 | 7.0 | 18.0 | 0.00 | 0.06 | 0.00 | 86 | 1011.3 |
| 20260904043505 | 69 | 226 | 8.0 | 17.0 | 0.00 | 0.06 | 0.00 | 86 | 1011.4 |
| 20260904043006 | 69 | 230 | 8.0 | 17.0 | 0.00 | 0.06 | 0.00 | 86 | 1011.5 |
| 20260904042505 | 69 | 235 | 9.0 | 18.0 | 0.00 | 0.06 | 0.00 | 86 | 1011.6 |
| 20260904042005 | 69 | 237 | 9.0 | 18.0 | 0.00 | 0.06 | 0.00 | 86 | 1011.7 |
| 20260904040005 | 69 | 228 | 7.0 | 16.0 | 0.00 | 0.06 | 0.00 | 86 | 1011.8 |
| 20260904035505 | 69 | 227 | 8.0 | 19.0 | 0.00 | 0.06 | 0.00 | 86 | 1011.9 |
| 20260904035005 | 69 | 229 | 9.0 | 19.0 | 0.00 | 0.06 | 0.00 | 85 | 1011.9 |
| 20260904034505 | 69 | 227 | 9.0 | 20.0 | 0.00 | 0.06 | 0.00 | 85 | 1011.9 |
| 20260904034005 | 69 | 224 | 8.0 | 20.0 | 0.00 | 0.06 | 0.00 | 86 | 1011.9 |
| 20260904033005 | 69 | 227 | 7.0 | 15.0 | 0.00 | 0.06 | 0.00 | 86 | 1012.0 |
| 20260904032505 | 69 | 222 | 8.0 | 19.0 | 0.00 | 0.06 | 0.00 | 85 | 1012.0 |
| 20260904031506 | 69 | 234 | 6.0 | 14.0 | 0.00 | 0.06 | 0.00 | 86 | 1012.1 |
| 20260904031005 | 69 | 231 | 7.0 | 15.0 | 0.00 | 0.06 | 0.00 | 85 | 1012.1 |
| 20260904030505 | 69 | 229 | 8.0 | 19.0 | 0.00 | 0.06 | 0.00 | 85 | 1012.1 |
| 20260904030005 | 69 | 231 | 9.0 | 19.0 | 0.00 | 0.06 | 0.00 | 85 | 1012.1 |
| 20260904025505 | 69 | 226 | 8.0 | 16.0 | 0.00 | 0.06 | 0.00 | 86 | 1012.2 |
| 20260904025005 | 69 | 227 | 8.0 | 21.0 | 0.00 | 0.06 | 0.00 | 85 | 1012.2 |
| 20260904024006 | 69 | 237 | 10.0 | 21.0 | 0.00 | 0.06 | 0.00 | 86 | 1012.4 |
| 20260904023505 | 69 | 239 | 8.0 | 18.0 | 0.00 | 0.06 | 0.00 | 86 | 1012.5 |
| 20260904023005 | 69 | 240 | 8.0 | 18.0 | 0.00 | 0.06 | 0.00 | 86 | 1012.6 |
| 20260904022505 | 69 | 246 | 9.0 | 18.0 | 0.00 | 0.06 | 0.00 | 85 | 1012.5 |
| 20260904022005 | 69 | 242 | 9.0 | 18.0 | 0.00 | 0.06 | 0.00 | 85 | 1012.6 |
| 20260904021505 | 70 | 230 | 9.0 | 22.0 | 0.00 | 0.06 | 0.00 | 85 | 1012.6 |
| 20260904020505 | 69 | 248 | 9.0 | 16.0 | 0.00 | 0.06 | 0.00 | 85 | 1012.8 |
| 20260904020005 | 69 | 249 | 9.0 | 17.0 | 0.00 | 0.06 | 0.00 | 85 | 1012.9 |
| 20260904015505 | 69 | 240 | 9.0 | 17.0 | 0.00 | 0.06 | 0.00 | 85 | 1013.0 |
| 20260904015005 | 69 | 234 | 10.0 | 19.0 | 0.00 | 0.06 | 0.00 | 85 | 1012.9 |
| 20260904014006 | 69 | 247 | 9.0 | 22.0 | 0.00 | 0.06 | 0.00 | 86 | 1013.0 |
| 20260904013505 | 69 | 253 | 10.0 | 19.0 | 0.00 | 0.06 | 0.00 | 87 | 1013.1 |
| 20260904013005 | 69 | 243 | 9.0 | 19.0 | 0.00 | 0.06 | 0.00 | 87 | 1013.2 |
| 20260904012505 | 69 | 245 | 8.0 | 16.0 | 0.00 | 0.06 | 0.00 | 87 | 1013.2 |
| 20260904012005 | 69 | 244 | 8.0 | 14.0 | 0.00 | 0.06 | 0.00 | 87 | 1013.3 |
| 20260904011505 | 69 | 237 | 7.0 | 15.0 | 0.00 | 0.06 | 0.00 | 87 | 1013.3 |
| 20260904011005 | 69 | 241 | 8.0 | 17.0 | 0.00 | 0.06 | 0.00 | 87 | 1013.4 |
| 20260904010505 | 70 | 243 | 9.0 | 19.0 | 0.00 | 0.06 | 0.00 | 86 | 1013.5 |
| 20260904010005 | 70 | 237 | 9.0 | 19.0 | 0.00 | 0.06 | 0.00 | 86 | 1013.6 |
| 20260904005507 | 70 | 242 | 9.0 | 20.0 | 0.00 | 0.06 | 0.00 | 87 | 1013.7 |
| 20260904005006 | 70 | 242 | 9.0 | 20.0 | 0.00 | 0.06 | 0.00 | 87 | 1013.7 |
| 20260904004005 | 70 | 245 | 9.0 | 17.0 | 0.00 | 0.06 | 0.00 | 86 | 1013.8 |
| 20260904003505 | 70 | 245 | 9.0 | 19.0 | 0.00 | 0.06 | 0.00 | 86 | 1013.8 |
| 20260904003006 | 70 | 248 | 9.0 | 20.0 | 0.00 | 0.06 | 0.00 | 87 | 1014.0 |
| 20260904002505 | 70 | 252 | 9.0 | 20.0 | 0.00 | 0.06 | 0.00 | 87 | 1014.0 |
| 20260904002005 | 70 | 252 | 9.0 | 18.0 | 0.00 | 0.06 | 0.00 | 87 | 1014.0 |
| 20260904001005 | 70 | 241 | 9.0 | 21.0 | 0.00 | 0.06 | 0.00 | 86 | 1014.1 |
| 20260904000505 | 70 | 238 | 9.0 | 20.0 | 0.00 | 0.06 | 0.00 | 86 | 1014.2 |
| 20260904000005 | 70 | 246 | 7.0 | 20.0 | 0.00 | 0.06 | 0.00 | 86 | 1014.2 |
| 20260903235505 | 70 | 244 | 7.0 | 17.0 | 0.00 | 0.06 | 0.00 | 86 | 1014.2 |
| 20260903235005 | 70 | 229 | 7.0 | 16.0 | 0.00 | 0.06 | 0.00 | 86 | 1014.2 |
| 20260903234505 | 70 | 222 | 6.0 | 16.0 | 0.00 | 0.06 | 0.00 | 87 | 1014.2 |
| 20260903234006 | 70 | 221 | 5.0 | 11.0 | 0.00 | 0.06 | 0.00 | 87 | 1014.3 |
| 20260903233505 | 70 | 225 | 5.0 | 13.0 | 0.00 | 0.06 | 0.00 | 86 | 1014.3 |
| 20260903233005 | 70 | 222 | 5.0 | 15.0 | 0.00 | 0.06 | 0.00 | 86 | 1014.3 |
| 20260903232506 | 70 | 227 | 6.0 | 15.0 | 0.00 | 0.06 | 0.00 | 86 | 1014.4 |
| 20260903231506 | 70 | 256 | 7.0 | 17.0 | 0.00 | 0.06 | 0.00 | 86 | 1014.5 |
| 20260903231005 | 70 | 248 | 8.0 | 17.0 | 0.00 | 0.06 | 0.00 | 86 | 1014.6 |
| 20260903230005 | 70 | 230 | 5.0 | 15.0 | 0.00 | 0.06 | 0.00 | 87 | 1014.7 |
| 20260903225505 | 70 | 229 | 5.0 | 13.0 | 0.00 | 0.06 | 0.00 | 87 | 1014.7 |
| 20260903224505 | 70 | 239 | 6.0 | 16.0 | 0.00 | 0.06 | 0.00 | 87 | 1014.8 |
| 20260903224005 | 70 | 249 | 7.0 | 16.0 | 0.00 | 0.06 | 0.00 | 87 | 1014.9 |
| 20260903223005 | 70 | 257 | 8.0 | 19.0 | 0.00 | 0.06 | 0.00 | 87 | 1015.1 |
| 20260903222505 | 70 | 243 | 7.0 | 18.0 | 0.00 | 0.06 | 0.00 | 87 | 1015.2 |
| 20260903221005 | 69 | 226 | 5.0 | 13.0 | 0.00 | 0.06 | 0.00 | 88 | 1015.2 |
| 20260903220505 | 69 | 221 | 5.0 | 13.0 | 0.00 | 0.06 | 0.00 | 88 | 1015.3 |
| 20260903220006 | 69 | 223 | 4.0 | 13.0 | 0.00 | 0.06 | 0.00 | 88 | 1015.2 |
| 20260903215505 | 69 | 218 | 5.0 | 12.0 | 0.00 | 0.06 | 0.06 | 88 | 1015.2 |
| 20260903215005 | 69 | 218 | 5.0 | 12.0 | 0.00 | 0.06 | 0.06 | 88 | 1015.3 |
| 20260903214505 | 69 | 228 | 5.0 | 11.0 | 0.00 | 0.06 | 0.06 | 88 | 1015.4 |
| 20260903214005 | 69 | 233 | 5.0 | 11.0 | 0.00 | 0.06 | 0.06 | 88 | 1015.5 |
| 20260903213505 | 69 | 218 | 5.0 | 11.0 | 0.00 | 0.06 | 0.06 | 88 | 1015.4 |
| 20260903212506 | 69 | 220 | 3.0 | 10.0 | 0.00 | 0.06 | 0.06 | 89 | 1015.5 |
| 20260903212005 | 69 | 222 | 3.0 | 10.0 | 0.00 | 0.06 | 0.06 | 89 | 1015.5 |
| 20260903211505 | 69 | 215 | 3.0 | 9.0 | 0.00 | 0.06 | 0.06 | 88 | 1015.6 |
| 20260903211005 | 69 | 213 | 4.0 | 11.0 | 0.00 | 0.06 | 0.06 | 88 | 1015.5 |
| 20260903210505 | 69 | 229 | 5.0 | 15.0 | 0.00 | 0.06 | 0.06 | 88 | 1015.6 |
| 20260903210006 | 69 | 236 | 7.0 | 17.0 | 0.00 | 0.06 | 0.06 | 87 | 1015.6 |
| 20260903205505 | 70 | 248 | 8.0 | 17.0 | 0.00 | 0.06 | 0.06 | 87 | 1015.7 |
| 20260903204505 | 69 | 258 | 10.0 | 20.0 | 0.00 | 0.06 | 0.06 | 87 | 1016.0 |
| 20260903204005 | 69 | 263 | 10.0 | 20.0 | 0.00 | 0.06 | 0.06 | 87 | 1016.1 |
| 20260903203005 | 69 | 252 | 8.0 | 17.0 | 0.00 | 0.06 | 0.06 | 88 | 1016.1 |
| 20260903202506 | 69 | 252 | 7.0 | 17.0 | 0.00 | 0.06 | 0.06 | 88 | 1016.2 |
| 20260903202005 | 69 | 240 | 6.0 | 14.0 | 0.00 | 0.06 | 0.06 | 88 | 1016.1 |
| 20260903201006 | 69 | 241 | 6.0 | 15.0 | 0.00 | 0.06 | 0.06 | 88 | 1016.0 |
| 20260903200006 | 69 | 257 | 5.0 | 13.0 | 0.00 | 0.06 | 0.06 | 88 | 1016.1 |
| 20260903195505 | 69 | 247 | 5.0 | 13.0 | 0.00 | 0.06 | 0.06 | 88 | 1016.1 |
| 20260903195005 | 69 | 255 | 6.0 | 14.0 | 0.00 | 0.06 | 0.06 | 87 | 1016.1 |
| 20260903194505 | 69 | 258 | 7.0 | 14.0 | 0.00 | 0.06 | 0.06 | 87 | 1016.2 |
| 20260903194006 | 69 | 246 | 7.0 | 15.0 | 0.00 | 0.06 | 0.06 | 87 | 1016.1 |
| 20260903193505 | 69 | 249 | 7.0 | 16.0 | 0.00 | 0.06 | 0.06 | 87 | 1015.9 |
| 20260903193007 | 69 | 259 | 7.0 | 16.0 | 0.00 | 0.06 | 0.06 | 87 | 1015.9 |
| 20260903192505 | 69 | 253 | 8.0 | 15.0 | 0.00 | 0.06 | 0.06 | 87 | 1016.0 |
| 20260903191505 | 69 | 240 | 7.0 | 15.0 | 0.00 | 0.06 | 0.06 | 88 | 1016.0 |
| 20260903191005 | 69 | 247 | 7.0 | 14.0 | 0.00 | 0.06 | 0.06 | 87 | 1016.0 |
| 20260903190006 | 69 | 257 | 7.0 | 14.0 | 0.00 | 0.06 | 0.06 | 87 | 1016.1 |
| 20260903185505 | 69 | 253 | 6.0 | 13.0 | 0.00 | 0.06 | 0.06 | 87 | 1016.3 |
| 20260903184505 | 69 | 243 | 5.0 | 14.0 | 0.00 | 0.06 | 0.06 | 87 | 1016.2 |
| 20260903183006 | 70 | 231 | 5.0 | 15.0 | 0.00 | 0.06 | 0.06 | 86 | 1016.2 |
| 20260903182505 | 70 | 231 | 5.0 | 13.0 | 0.00 | 0.06 | 0.06 | 86 | 1016.2 |
| 20260903182005 | 70 | 232 | 4.0 | 12.0 | 0.00 | 0.06 | 0.06 | 85 | 1016.2 |